Regional Weather Roundup
Issued by NWS Upton, NY

Current Version | Previous Version | Graphics & Text | Print | Product List | Glossary Off
Versions: 1 2 3 4 5 6 7 8 9 10 11 12 13 14 15 16 17 18 19 20 21 22 23 24 25 26 27 28 29 30 31 32 33 34 35 36 37 38 39 40 41 42 43 44 45 46 47 48 49 50

497
ASUS41 KOKX 040004
RWROKX

REGIONAL WEATHER ROUNDUP
NATIONAL WEATHER SERVICE NEW YORK NY
800 PM EDT TUE MAY 03 2016

NOTE: "FAIR" INDICATES FEW OR NO CLOUDS BELOW 12,000 FEET WITH NO
SIGNIFICANT WEATHER AND/OR OBSTRUCTIONS TO VISIBILITY.

NYZ071-072-176-178-NJZ106-104-040100-
NEW YORK CITY METRO AREA


CITY           SKY/WX    TMP DP  RH WIND       PRES   REMARKS
CENTRAL PARK   CLOUDY    52  49  89 VRB5      29.86R FOG
LAGUARDIA APRT DRIZZLE   52  52 100 NE7       29.84R
KENNEDY INTL   DRIZZLE   51  49  92 SE7       29.85R FOG
NEWARK/LIBERTY DRIZZLE   53  52  97 S6        29.84R FOG
BRNX BOT. GARD   N/A     50  48  93 E2        29.86R
TETERBORO      LGT RAIN  53  48  83 SE5       29.83R FOG
$$

NYZ177-179-078>081-040100-
LONG ISLAND NEW YORK

CITY           SKY/WX    TMP DP  RH WIND       PRES   REMARKS
FARMINGDALE    CLOUDY    51  49  92 SE5       29.84R FOG
ISLIP          NOT AVBL
SHIRLEY        CLOUDY    51  48  89 SE3       29.85R
RIVERHEAD        N/A     50  48  93 CALM      29.84S
WESTHAMPTON    CLOUDY    45  45 100 E3        29.86R FOG
EAST HAMPTON   CLOUDY    47  46  96 E6        29.84R FOG
MONTAUK POINT    N/A     48  46  93 E5        29.85R
$$

NYZ052-065-067-040100-
HUDSON VALLEY

CITY           SKY/WX    TMP DP  RH WIND       PRES   REMARKS
WHITE PLAINS   FOG       49  48  97 SE5       29.83R VSB 1/2
NEWBURGH       CLOUDY    52  50  93 NE6       29.83R FOG
MONTGOMERY     LGT RAIN  51  50  96 N5        29.83R
POUGHKEEPSIE   CLOUDY    53  50  89 CALM      29.83R FOG
ALBANY         CLOUDY    54  41  61 CALM      29.83R
$$

NJZ001-105-106-008-010-013-015-019>022-104-040100-
NEW JERSEY

CITY           SKY/WX    TMP DP  RH WIND       PRES   REMARKS
NEWARK/LIBERTY DRIZZLE   53  52  97 S6        29.84R FOG
TETERBORO      LGT RAIN  53  48  83 SE5       29.83R FOG
CALDWELL       CLOUDY    53  50  89 SE3       29.84R
MORRISTOWN     LGT RAIN  54  52  94 SE6       29.84R FOG
SOMERVILLE     CLOUDY    53  51  93 SE5       29.81S FOG
SUSSEX         CLOUDY    51  49  92 NE3       29.83S FOG
ANDOVER          N/A     51  49  92 N3        29.83R
TRENTON        CLOUDY    53  51  93 E6        29.82S FOG
MILLVILLE      CLOUDY    54  51  90 NE8       29.82R
ATLANTIC CITY  CLOUDY    50  49  96 NE8       29.82R
WRIGHTSTOWN    CLOUDY    52  50  93 E8        29.80F
TOMS RIVER     CLOUDY    48  46  93 NE7       29.84F
BELMAR         LGT RAIN  49  48  97 E8        29.86R FOG
$$

PAZ047>061-062-071-040100-
EASTERN PENNSYLVANIA

CITY           SKY/WX    TMP DP  RH WIND       PRES   REMARKS
PHILADELPHIA   CLOUDY    56  50  80 E10       29.82S
ALLENTOWN      CLOUDY    55  51  86 E6        29.81S
SCRANTON       CLOUDY    51  49  92 CALM      29.80S
$$

CTZ002-004>006-009-010-012-RIZ004-006-007-MAZ004-011-015-040100-
SOUTHERN NEW ENGLAND
 IN CT

CITY           SKY/WX    TMP DP  RH WIND       PRES   REMARKS
BRADLEY INTL   LGT RAIN  51  47  86 N6        29.83S
HARTFORD       CLOUDY    54  48  80 NE5       29.84R
DANBURY        CLOUDY    52  49  89 SE5       29.84R
WTRBRY/OXFORD  NOT AVBL
BRIDGEPORT     CLOUDY    50  48  93 E3        29.85R
MERIDEN        CLOUDY    53  48  83 E3        29.83S
NEW HAVEN      CLOUDY    49  47  93 SE6       29.84R
CHESTER        CLOUDY    52  48  87 CALM      29.84R
GROTON         CLOUDY    49  49 100 E3        29.83R
WILLIMANTIC    CLOUDY    52  46  80 NE5       29.84R

 IN RI

CITY           SKY/WX    TMP DP  RH WIND       PRES   REMARKS
PROVIDENCE     CLOUDY    49  43  80 NE7       29.86R
BLOCK ISLAND   CLOUDY    47  45  93 E12       29.85R
WESTERLY       CLOUDY    50  46  86 E6        29.84S

 IN MA

CITY           SKY/WX    TMP DP  RH WIND       PRES   REMARKS
BOSTON         LGT RAIN  47  41  80 E6        29.87R
WORCESTER      CLOUDY    47  43  86 NE3       29.85R
WESTFIELD      CLOUDY    50  47  89 N3        29.84S
PROVINCETOWN   CLOUDY    45  43  93 E6        29.87R
NANTUCKET      CLOUDY    47  44  90 NE10      29.83R
$$

ANZ330-335-338-340-345-350-353-355-040100-
COASTAL MARINE OBSERVATIONS


STATION/POSITION TIME  SKY/WX   TEMP    WIND        PRES    VSBY  WAVE
                                AIR SEA DIR/SP/G                  HT/PER
                 (UTC)          (F)     (DEG/KT/KT) (MB)    (MI)  (FT/S)
NY HARB ENTRANCE 2250            49 51   80/ 12/ 14 1009.6          4/ 6
20S FIRE ISLAND  2250            48 49   50/ 16/ 17 1009.4          5/ 5
GREAT SOUTH BAY  2315            49 56  120/ 10/ 12   N/A
23 SSW MONTAUK P 2350            47 47   70/ 12/ 14 1009.9          4/ 5
15 E BARNEGAT LI 2322               50                N/A           5/ 6
HUDSON CANYON    2250            48 49              1008.6          5/ 7
KINGS POINT      2300            51 54              1009.9
EXECUTION ROCKS  NOT AVBL
CENTRAL LI SOUND NOT AVBL
EASTERN LI SOUND 2300            48 48   90/  8/ 12   N/A
ROBBINS REEF     2300            51                 1009.4
$$


>>>>>>>>>>>>>>>>>>>>>>>>>>>> KEY <<<<<<<<<<<<<<<<<<<<<<<<<<<
>                                                          <
>     SKY/WX - SKY CONDITION/PRESENT WEATHER               <
>     TMP    - TEMPERATURE IN FAHRENHEIT                   <
>     DP     - DEWPOINT IN FAHRENHEIT                      <
>     RH     - RELATIVE HUMIDITY IN PERCENT                <
>     WIND   - DIRECTION AND SPEED IN MPH                  <
>     PRES   - MEAN SEA LEVEL PRESSURE IN INCHES OF HG     <
>     WCI    - WIND CHILL INDEX                            <
>     VSB    - VISIBILITY IN MILES                         <
>     HX     - HEAT INDEX                                  <
>     TC     - TEMPERATURE IN CELSIUS                      <
>     VRB    - VARIABLE WIND DIRECTION                     <
>                                                          <
>>>>>>>>>>>>>>>>>>>>>>>>>>>> KEY <<<<<<<<<<<<<<<<<<<<<<<<<<<






USA.gov is the U.S. government's official web portal to all federal, state and local government web resources and services.